<?xml version="1.0"?>
<gpx xmlns="http://www.topografix.com/GPX/1/1" xmlns:xsi="http://www.w3.org/2001/XMLSchema-instance" version="1.1" creator="GPX RubyGem 1.0.0 -- http://dougfales.github.io/gpx/" xsi:schemaLocation="http://www.topografix.com/GPX/1/1 http://www.topografix.com/GPX/1/1/gpx.xsd">
  <metadata>
    <name/>
    <time>2026-05-09T21:52:49+00:00</time>
    <bound minlat="90.0" minlon="180.0" maxlat="-90.0" maxlon="-180.0"/>
  </metadata>
  <trk>
    <name/>
    <trkseg>
      <trkpt lat="43.86405" lon="3.316257">
        <time>1970-01-01T00:00:00+00:00</time>
        <ele>742.0</ele>
      </trkpt>
      <trkpt lat="43.864098" lon="3.316294">
        <time>1970-01-01T00:00:00+00:00</time>
        <ele>741.0</ele>
      </trkpt>
      <trkpt lat="43.864152" lon="3.316234">
        <time>1970-01-01T00:00:00+00:00</time>
        <ele>741.0</ele>
      </trkpt>
      <trkpt lat="43.864293" lon="3.31633">
        <time>1970-01-01T00:00:00+00:00</time>
        <ele>741.0</ele>
      </trkpt>
      <trkpt lat="43.864396" lon="3.31629">
        <time>1970-01-01T00:00:00+00:00</time>
        <ele>741.0</ele>
      </trkpt>
      <trkpt lat="43.864461" lon="3.31627">
        <time>1970-01-01T00:00:00+00:00</time>
        <ele>741.0</ele>
      </trkpt>
      <trkpt lat="43.864481" lon="3.316547">
        <time>1970-01-01T00:00:00+00:00</time>
        <ele>742.0</ele>
      </trkpt>
      <trkpt lat="43.864392" lon="3.316656">
        <time>1970-01-01T00:00:00+00:00</time>
        <ele>742.0</ele>
      </trkpt>
      <trkpt lat="43.864238" lon="3.316983">
        <time>1970-01-01T00:00:00+00:00</time>
        <ele>744.0</ele>
      </trkpt>
      <trkpt lat="43.864319" lon="3.317077">
        <time>1970-01-01T00:00:00+00:00</time>
        <ele>745.0</ele>
      </trkpt>
      <trkpt lat="43.864388" lon="3.316964">
        <time>1970-01-01T00:00:00+00:00</time>
        <ele>744.0</ele>
      </trkpt>
      <trkpt lat="43.864438" lon="3.316903">
        <time>1970-01-01T00:00:00+00:00</time>
        <ele>744.0</ele>
      </trkpt>
      <trkpt lat="43.864594" lon="3.317242">
        <time>1970-01-01T00:00:00+00:00</time>
        <ele>747.0</ele>
      </trkpt>
      <trkpt lat="43.86459" lon="3.317298">
        <time>1970-01-01T00:00:00+00:00</time>
        <ele>747.0</ele>
      </trkpt>
      <trkpt lat="43.864633" lon="3.317397">
        <time>1970-01-01T00:00:00+00:00</time>
        <ele>748.0</ele>
      </trkpt>
      <trkpt lat="43.864699" lon="3.317363">
        <time>1970-01-01T00:00:00+00:00</time>
        <ele>749.0</ele>
      </trkpt>
      <trkpt lat="43.864713" lon="3.317436">
        <time>1970-01-01T00:00:00+00:00</time>
        <ele>750.0</ele>
      </trkpt>
      <trkpt lat="43.864673" lon="3.317553">
        <time>1970-01-01T00:00:00+00:00</time>
        <ele>749.0</ele>
      </trkpt>
      <trkpt lat="43.864515" lon="3.31779">
        <time>1970-01-01T00:00:00+00:00</time>
        <ele>749.0</ele>
      </trkpt>
      <trkpt lat="43.864431" lon="3.317908">
        <time>1970-01-01T00:00:00+00:00</time>
        <ele>749.0</ele>
      </trkpt>
      <trkpt lat="43.864515" lon="3.318008">
        <time>1970-01-01T00:00:00+00:00</time>
        <ele>751.0</ele>
      </trkpt>
      <trkpt lat="43.864516" lon="3.318052">
        <time>1970-01-01T00:00:00+00:00</time>
        <ele>752.0</ele>
      </trkpt>
      <trkpt lat="43.864447" lon="3.318199">
        <time>1970-01-01T00:00:00+00:00</time>
        <ele>751.0</ele>
      </trkpt>
      <trkpt lat="43.864421" lon="3.318246">
        <time>1970-01-01T00:00:00+00:00</time>
        <ele>751.0</ele>
      </trkpt>
      <trkpt lat="43.864485" lon="3.318322">
        <time>1970-01-01T00:00:00+00:00</time>
        <ele>753.0</ele>
      </trkpt>
      <trkpt lat="43.864497" lon="3.318381">
        <time>1970-01-01T00:00:00+00:00</time>
        <ele>755.0</ele>
      </trkpt>
      <trkpt lat="43.864556" lon="3.318441">
        <time>1970-01-01T00:00:00+00:00</time>
        <ele>758.0</ele>
      </trkpt>
      <trkpt lat="43.864537" lon="3.318588">
        <time>1970-01-01T00:00:00+00:00</time>
        <ele>760.0</ele>
      </trkpt>
      <trkpt lat="43.864558" lon="3.318633">
        <time>1970-01-01T00:00:00+00:00</time>
        <ele>762.0</ele>
      </trkpt>
      <trkpt lat="43.864632" lon="3.31864">
        <time>1970-01-01T00:00:00+00:00</time>
        <ele>765.0</ele>
      </trkpt>
      <trkpt lat="43.864664" lon="3.318621">
        <time>1970-01-01T00:00:00+00:00</time>
        <ele>766.0</ele>
      </trkpt>
      <trkpt lat="43.864705" lon="3.31871">
        <time>1970-01-01T00:00:00+00:00</time>
        <ele>770.0</ele>
      </trkpt>
      <trkpt lat="43.864715" lon="3.318792">
        <time>1970-01-01T00:00:00+00:00</time>
        <ele>772.0</ele>
      </trkpt>
      <trkpt lat="43.864732" lon="3.318791">
        <time>1970-01-01T00:00:00+00:00</time>
        <ele>773.0</ele>
      </trkpt>
      <trkpt lat="43.864793" lon="3.318637">
        <time>1970-01-01T00:00:00+00:00</time>
        <ele>774.0</ele>
      </trkpt>
      <trkpt lat="43.864841" lon="3.318603">
        <time>1970-01-01T00:00:00+00:00</time>
        <ele>776.0</ele>
      </trkpt>
      <trkpt lat="43.864887" lon="3.318553">
        <time>1970-01-01T00:00:00+00:00</time>
        <ele>777.0</ele>
      </trkpt>
      <trkpt lat="43.864932" lon="3.318465">
        <time>1970-01-01T00:00:00+00:00</time>
        <ele>778.0</ele>
      </trkpt>
      <trkpt lat="43.864969" lon="3.318411">
        <time>1970-01-01T00:00:00+00:00</time>
        <ele>779.0</ele>
      </trkpt>
      <trkpt lat="43.864952" lon="3.318677">
        <time>1970-01-01T00:00:00+00:00</time>
        <ele>783.0</ele>
      </trkpt>
      <trkpt lat="43.86494" lon="3.318852">
        <time>1970-01-01T00:00:00+00:00</time>
        <ele>784.0</ele>
      </trkpt>
      <trkpt lat="43.86496" lon="3.31887">
        <time>1970-01-01T00:00:00+00:00</time>
        <ele>785.0</ele>
      </trkpt>
      <trkpt lat="43.86498" lon="3.318837">
        <time>1970-01-01T00:00:00+00:00</time>
        <ele>786.0</ele>
      </trkpt>
      <trkpt lat="43.865024" lon="3.318725">
        <time>1970-01-01T00:00:00+00:00</time>
        <ele>787.0</ele>
      </trkpt>
      <trkpt lat="43.865097" lon="3.318705">
        <time>1970-01-01T00:00:00+00:00</time>
        <ele>790.0</ele>
      </trkpt>
      <trkpt lat="43.865146" lon="3.318602">
        <time>1970-01-01T00:00:00+00:00</time>
        <ele>792.0</ele>
      </trkpt>
      <trkpt lat="43.865184" lon="3.318559">
        <time>1970-01-01T00:00:00+00:00</time>
        <ele>794.0</ele>
      </trkpt>
      <trkpt lat="43.865213" lon="3.318628">
        <time>1970-01-01T00:00:00+00:00</time>
        <ele>796.0</ele>
      </trkpt>
      <trkpt lat="43.865213" lon="3.318628">
        <time>1970-01-01T00:00:00+00:00</time>
        <ele>796.0</ele>
      </trkpt>
      <trkpt lat="43.865184" lon="3.318559">
        <time>1970-01-01T00:00:00+00:00</time>
        <ele>794.0</ele>
      </trkpt>
      <trkpt lat="43.865146" lon="3.318602">
        <time>1970-01-01T00:00:00+00:00</time>
        <ele>792.0</ele>
      </trkpt>
      <trkpt lat="43.865097" lon="3.318705">
        <time>1970-01-01T00:00:00+00:00</time>
        <ele>790.0</ele>
      </trkpt>
      <trkpt lat="43.865024" lon="3.318725">
        <time>1970-01-01T00:00:00+00:00</time>
        <ele>787.0</ele>
      </trkpt>
      <trkpt lat="43.86498" lon="3.318837">
        <time>1970-01-01T00:00:00+00:00</time>
        <ele>786.0</ele>
      </trkpt>
      <trkpt lat="43.86496" lon="3.31887">
        <time>1970-01-01T00:00:00+00:00</time>
        <ele>785.0</ele>
      </trkpt>
      <trkpt lat="43.86494" lon="3.318852">
        <time>1970-01-01T00:00:00+00:00</time>
        <ele>784.0</ele>
      </trkpt>
      <trkpt lat="43.864952" lon="3.318677">
        <time>1970-01-01T00:00:00+00:00</time>
        <ele>783.0</ele>
      </trkpt>
      <trkpt lat="43.864969" lon="3.318411">
        <time>1970-01-01T00:00:00+00:00</time>
        <ele>779.0</ele>
      </trkpt>
      <trkpt lat="43.864932" lon="3.318465">
        <time>1970-01-01T00:00:00+00:00</time>
        <ele>778.0</ele>
      </trkpt>
      <trkpt lat="43.864887" lon="3.318553">
        <time>1970-01-01T00:00:00+00:00</time>
        <ele>777.0</ele>
      </trkpt>
      <trkpt lat="43.864841" lon="3.318603">
        <time>1970-01-01T00:00:00+00:00</time>
        <ele>776.0</ele>
      </trkpt>
      <trkpt lat="43.864793" lon="3.318637">
        <time>1970-01-01T00:00:00+00:00</time>
        <ele>774.0</ele>
      </trkpt>
      <trkpt lat="43.864732" lon="3.318791">
        <time>1970-01-01T00:00:00+00:00</time>
        <ele>773.0</ele>
      </trkpt>
      <trkpt lat="43.864715" lon="3.318792">
        <time>1970-01-01T00:00:00+00:00</time>
        <ele>772.0</ele>
      </trkpt>
      <trkpt lat="43.864705" lon="3.31871">
        <time>1970-01-01T00:00:00+00:00</time>
        <ele>770.0</ele>
      </trkpt>
      <trkpt lat="43.864664" lon="3.318621">
        <time>1970-01-01T00:00:00+00:00</time>
        <ele>766.0</ele>
      </trkpt>
      <trkpt lat="43.864632" lon="3.31864">
        <time>1970-01-01T00:00:00+00:00</time>
        <ele>765.0</ele>
      </trkpt>
      <trkpt lat="43.864558" lon="3.318633">
        <time>1970-01-01T00:00:00+00:00</time>
        <ele>762.0</ele>
      </trkpt>
      <trkpt lat="43.864537" lon="3.318588">
        <time>1970-01-01T00:00:00+00:00</time>
        <ele>760.0</ele>
      </trkpt>
      <trkpt lat="43.864556" lon="3.318441">
        <time>1970-01-01T00:00:00+00:00</time>
        <ele>758.0</ele>
      </trkpt>
      <trkpt lat="43.864497" lon="3.318381">
        <time>1970-01-01T00:00:00+00:00</time>
        <ele>755.0</ele>
      </trkpt>
      <trkpt lat="43.864485" lon="3.318322">
        <time>1970-01-01T00:00:00+00:00</time>
        <ele>753.0</ele>
      </trkpt>
      <trkpt lat="43.864421" lon="3.318246">
        <time>1970-01-01T00:00:00+00:00</time>
        <ele>751.0</ele>
      </trkpt>
      <trkpt lat="43.864447" lon="3.318199">
        <time>1970-01-01T00:00:00+00:00</time>
        <ele>751.0</ele>
      </trkpt>
      <trkpt lat="43.864516" lon="3.318052">
        <time>1970-01-01T00:00:00+00:00</time>
        <ele>752.0</ele>
      </trkpt>
      <trkpt lat="43.864515" lon="3.318008">
        <time>1970-01-01T00:00:00+00:00</time>
        <ele>751.0</ele>
      </trkpt>
      <trkpt lat="43.864431" lon="3.317908">
        <time>1970-01-01T00:00:00+00:00</time>
        <ele>749.0</ele>
      </trkpt>
      <trkpt lat="43.864515" lon="3.31779">
        <time>1970-01-01T00:00:00+00:00</time>
        <ele>749.0</ele>
      </trkpt>
      <trkpt lat="43.864673" lon="3.317553">
        <time>1970-01-01T00:00:00+00:00</time>
        <ele>749.0</ele>
      </trkpt>
      <trkpt lat="43.864713" lon="3.317436">
        <time>1970-01-01T00:00:00+00:00</time>
        <ele>750.0</ele>
      </trkpt>
      <trkpt lat="43.864699" lon="3.317363">
        <time>1970-01-01T00:00:00+00:00</time>
        <ele>749.0</ele>
      </trkpt>
      <trkpt lat="43.864633" lon="3.317397">
        <time>1970-01-01T00:00:00+00:00</time>
        <ele>748.0</ele>
      </trkpt>
      <trkpt lat="43.86459" lon="3.317298">
        <time>1970-01-01T00:00:00+00:00</time>
        <ele>747.0</ele>
      </trkpt>
      <trkpt lat="43.864594" lon="3.317242">
        <time>1970-01-01T00:00:00+00:00</time>
        <ele>747.0</ele>
      </trkpt>
      <trkpt lat="43.864438" lon="3.316903">
        <time>1970-01-01T00:00:00+00:00</time>
        <ele>744.0</ele>
      </trkpt>
      <trkpt lat="43.864388" lon="3.316964">
        <time>1970-01-01T00:00:00+00:00</time>
        <ele>744.0</ele>
      </trkpt>
      <trkpt lat="43.864319" lon="3.317077">
        <time>1970-01-01T00:00:00+00:00</time>
        <ele>745.0</ele>
      </trkpt>
      <trkpt lat="43.864238" lon="3.316983">
        <time>1970-01-01T00:00:00+00:00</time>
        <ele>744.0</ele>
      </trkpt>
      <trkpt lat="43.864392" lon="3.316656">
        <time>1970-01-01T00:00:00+00:00</time>
        <ele>742.0</ele>
      </trkpt>
      <trkpt lat="43.864481" lon="3.316547">
        <time>1970-01-01T00:00:00+00:00</time>
        <ele>742.0</ele>
      </trkpt>
      <trkpt lat="43.864461" lon="3.31627">
        <time>1970-01-01T00:00:00+00:00</time>
        <ele>741.0</ele>
      </trkpt>
      <trkpt lat="43.864396" lon="3.31629">
        <time>1970-01-01T00:00:00+00:00</time>
        <ele>741.0</ele>
      </trkpt>
      <trkpt lat="43.864293" lon="3.31633">
        <time>1970-01-01T00:00:00+00:00</time>
        <ele>741.0</ele>
      </trkpt>
      <trkpt lat="43.864152" lon="3.316234">
        <time>1970-01-01T00:00:00+00:00</time>
        <ele>741.0</ele>
      </trkpt>
      <trkpt lat="43.864098" lon="3.316294">
        <time>1970-01-01T00:00:00+00:00</time>
        <ele>741.0</ele>
      </trkpt>
      <trkpt lat="43.86405" lon="3.316257">
        <time>1970-01-01T00:00:00+00:00</time>
        <ele>742.0</ele>
      </trkpt>
    </trkseg>
  </trk>
</gpx>
